Meteo pe oră la Abhar

Astăzi, 24 Iulie, Sâmbătă

Timp Temperatura Precipitaţii Vânt Presiune Umiditate
00:00 +21°C° 0 mm 3 m/s 618 mmHg 62%
01:00 +20°C° 0 mm 2 m/s 618 mmHg 61%
02:00 +20°C° 0 mm 2 m/s 618 mmHg 61%
03:00 +20°C° 0 mm 2 m/s 618 mmHg 61%
04:00 +20°C° 0 mm 2 m/s 618 mmHg 61%
05:00 +20°C° 0 mm 2 m/s 619 mmHg 62%
06:00 +19°C° 0 mm 2 m/s 619 mmHg 62%
07:00 +21°C° 0 mm 3 m/s 620 mmHg 56%
08:00 +24°C° 0 mm 3 m/s 620 mmHg 50%
09:00 +26°C° 0 mm 3 m/s 621 mmHg 43%
10:00 +28°C° 0 mm 4 m/s 621 mmHg 39%
11:00 +30°C° 0 mm 5 m/s 621 mmHg 35%
12:00 +32°C° 0 mm 6 m/s 622 mmHg 31%
13:00 +32°C° 0 mm 6 m/s 622 mmHg 31%
14:00 +33°C° 0 mm 6 m/s 622 mmHg 31%
15:00 +33°C° 0 mm 6 m/s 621 mmHg 32%
16:00 +30°C° 0 mm 5 m/s 621 mmHg 38%
17:00 +29°C° 0 mm 5 m/s 621 mmHg 43%
18:00 +27°C° 0 mm 4 m/s 620 mmHg 49%
19:00 +25°C° 0 mm 4 m/s 620 mmHg 58%
20:00 +22°C° 0 mm 4 m/s 620 mmHg 67%
21:00 +20°C° 0 mm 4 m/s 621 mmHg 76%
22:00 +20°C° 0 mm 3 m/s 621 mmHg 78%
23:00 +20°C° 0 mm 3 m/s 621 mmHg 80%

Mâine, 25 Iulie, Duminică

Timp Temperatura Precipitaţii Vânt Presiune Umiditate
00:00 +19°C° 0 mm 3 m/s 621 mmHg 82%
01:00 +19°C° 0 mm 3 m/s 621 mmHg 83%
02:00 +18°C° 0 mm 3 m/s 621 mmHg 85%
03:00 +18°C° 0 mm 2 m/s 621 mmHg 87%
04:00 +18°C° 0 mm 3 m/s 621 mmHg 85%
05:00 +18°C° 0 mm 3 m/s 621 mmHg 83%
06:00 +19°C° 0 mm 3 m/s 622 mmHg 80%
07:00 +21°C° 0 mm 3 m/s 623 mmHg 68%
08:00 +25°C° 0 mm 3 m/s 623 mmHg 55%
09:00 +27°C° 0 mm 4 m/s 624 mmHg 43%
10:00 +29°C° 0 mm 5 m/s 624 mmHg 38%
11:00 +32°C° 0 mm 5 m/s 625 mmHg 34%
12:00 +33°C° 0 mm 6 m/s 625 mmHg 29%
13:00 +34°C° 0 mm 6 m/s 625 mmHg 27%
14:00 +35°C° 0 mm 7 m/s 625 mmHg 25%
15:00 +36°C° 0 mm 7 m/s 625 mmHg 23%
16:00 +34°C° 0 mm 6 m/s 624 mmHg 30%
17:00 +32°C° 0 mm 5 m/s 624 mmHg 37%
18:00 +29°C° 0 mm 5 m/s 623 mmHg 44%
19:00 +27°C° 0 mm 4 m/s 623 mmHg 53%
20:00 +25°C° 0 mm 3 m/s 623 mmHg 62%
21:00 +22°C° 0 mm 3 m/s 623 mmHg 71%
22:00 +22°C° 0 mm 3 m/s 623 mmHg 71%
23:00 +21°C° 0 mm 3 m/s 623 mmHg 71%

Poimâine, 26 Iulie, Luni

Timp Temperatura Precipitaţii Vânt Presiune Umiditate
00:00 +21°C° 0 mm 3 m/s 623 mmHg 71%
01:00 +21°C° 0 mm 2 m/s 623 mmHg 72%
02:00 +20°C° 0 mm 2 m/s 623 mmHg 73%
03:00 +20°C° 0 mm 2 m/s 623 mmHg 74%
04:00 +20°C° 0 mm 2 m/s 624 mmHg 72%
05:00 +20°C° 0 mm 2 m/s 624 mmHg 70%
06:00 +20°C° 0 mm 2 m/s 625 mmHg 68%
07:00 +24°C° 0 mm 3 m/s 625 mmHg 56%
08:00 +27°C° 0 mm 4 m/s 626 mmHg 45%
09:00 +30°C° 0 mm 4 m/s 627 mmHg 33%
10:00 +32°C° 0 mm 5 m/s 627 mmHg 29%
11:00 +34°C° 0 mm 5 m/s 627 mmHg 25%
12:00 +35°C° 0 mm 6 m/s 627 mmHg 21%
13:00 +36°C° 0 mm 6 m/s 627 mmHg 20%
14:00 +36°C° 0 mm 5 m/s 627 mmHg 19%
15:00 +37°C° 0 mm 5 m/s 626 mmHg 18%
16:00 +36°C° 0 mm 5 m/s 626 mmHg 23%
17:00 +34°C° 0 mm 5 m/s 625 mmHg 28%
18:00 +33°C° 0 mm 4 m/s 625 mmHg 32%
19:00 +30°C° 0 mm 3 m/s 625 mmHg 40%
20:00 +28°C° 0 mm 2 m/s 624 mmHg 47%
21:00 +26°C° 0 mm 2 m/s 624 mmHg 54%
22:00 +25°C° 0 mm 2 m/s 624 mmHg 55%
23:00 +25°C° 0 mm 2 m/s 624 mmHg 55%

27 Iulie, Marţi

Timp Temperatura Precipitaţii Vânt Presiune Umiditate
00:00 +25°C° 0 mm 2 m/s 624 mmHg 56%
01:00 +24°C° 0 mm 2 m/s 624 mmHg 55%
02:00 +24°C° 0 mm 2 m/s 623 mmHg 55%
03:00 +23°C° 0 mm 1 m/s 623 mmHg 54%
04:00 +24°C° 0 mm 1 m/s 624 mmHg 52%
05:00 +24°C° 0 mm 2 m/s 624 mmHg 50%
06:00 +25°C° 0 mm 2 m/s 625 mmHg 48%
07:00 +27°C° 0 mm 2 m/s 625 mmHg 42%
08:00 +29°C° 0 mm 3 m/s 625 mmHg 35%
09:00 +31°C° 0 mm 3 m/s 626 mmHg 29%
10:00 +33°C° 0 mm 3 m/s 626 mmHg 25%
11:00 +35°C° 0 mm 3 m/s 626 mmHg 22%
12:00 +36°C° 0 mm 3 m/s 626 mmHg 18%
13:00 +36°C° 0 mm 4 m/s 625 mmHg 18%
14:00 +37°C° 0 mm 4 m/s 625 mmHg 18%
15:00 +37°C° 0 mm 5 m/s 624 mmHg 18%
16:00 +35°C° 0 mm 4 m/s 624 mmHg 23%
17:00 +33°C° 0 mm 4 m/s 623 mmHg 29%
18:00 +32°C° 0 mm 4 m/s 623 mmHg 35%
19:00 +29°C° 0 mm 3 m/s 622 mmHg 42%
20:00 +27°C° 0 mm 3 m/s 622 mmHg 49%
21:00 +25°C° 0 mm 2 m/s 622 mmHg 56%
22:00 +24°C° 0 mm 3 m/s 622 mmHg 62%
23:00 +22°C° 0 mm 3 m/s 621 mmHg 67%

28 Iulie, Miercuri

Timp Temperatura Precipitaţii Vânt Presiune Umiditate
00:00 +21°C° 0 mm 3 m/s 621 mmHg 72%
01:00 +20°C° 0 mm 3 m/s 621 mmHg 76%
02:00 +19°C° 0 mm 3 m/s 621 mmHg 80%
03:00 +18°C° 0 mm 3 m/s 620 mmHg 83%
04:00 +18°C° 0 mm 3 m/s 621 mmHg 83%
05:00 +17°C° 0 mm 3 m/s 621 mmHg 82%
06:00 +17°C° 0 mm 3 m/s 622 mmHg 81%
07:00 +19°C° 0 mm 3 m/s 622 mmHg 73%
08:00 +21°C° 0 mm 3 m/s 622 mmHg 65%
09:00 +22°C° 0 mm 4 m/s 623 mmHg 57%
10:00 +25°C° 0 mm 4 m/s 623 mmHg 52%
11:00 +26°C° 0 mm 5 m/s 623 mmHg 48%
12:00 +27°C° 0 mm 5 m/s 623 mmHg 44%
13:00 +27°C° 0 mm 5 m/s 622 mmHg 48%
14:00 +26°C° 0 mm 6 m/s 622 mmHg 51%
15:00 +24°C° 0 mm 6 m/s 621 mmHg 54%
16:00 +22°C° 0 mm 5 m/s 621 mmHg 62%
17:00 +21°C° 0 mm 5 m/s 621 mmHg 70%
18:00 +19°C° 0 mm 5 m/s 621 mmHg 78%
19:00 +17°C° 0 mm 5 m/s 621 mmHg 81%
20:00 +17°C° 0 mm 4 m/s 621 mmHg 84%
21:00 +17°C° 0 mm 4 m/s 621 mmHg 88%
22:00 +17°C° 0 mm 4 m/s 621 mmHg 88%
23:00 +15°C° 0 mm 4 m/s 621 mmHg 88%

29 Iulie, Joi

Timp Temperatura Precipitaţii Vânt Presiune Umiditate
00:00 +15°C° 0 mm 4 m/s 621 mmHg 88%
01:00 +15°C° 0 mm 4 m/s 621 mmHg 89%
02:00 +15°C° 0 mm 4 m/s 621 mmHg 89%
03:00 +14°C° 0 mm 4 m/s 621 mmHg 90%
04:00 +14°C° 0 mm 4 m/s 621 mmHg 91%
05:00 +14°C° 0 mm 4 m/s 621 mmHg 92%
06:00 +14°C° 0 mm 3 m/s 621 mmHg 93%
07:00 +14°C° 0 mm 4 m/s 621 mmHg 88%
08:00 +15°C° 0 mm 4 m/s 622 mmHg 84%
09:00 +15°C° 0 mm 4 m/s 622 mmHg 80%
10:00 +17°C° 0 mm 4 m/s 622 mmHg 73%
11:00 +19°C° 0 mm 5 m/s 622 mmHg 66%
12:00 +20°C° 0 mm 5 m/s 623 mmHg 59%
13:00 +20°C° 0 mm 5 m/s 622 mmHg 59%
14:00 +20°C° 0 mm 6 m/s 622 mmHg 58%
15:00 +21°C° 0 mm 6 m/s 622 mmHg 58%
16:00 +19°C° 0 mm 6 m/s 622 mmHg 64%
17:00 +17°C° 0 mm 5 m/s 622 mmHg 70%
18:00 +15°C° 0 mm 5 m/s 621 mmHg 76%
19:00 +15°C° 0.6 mm 4 m/s 621 mmHg 79%
20:00 +14°C° 0.6 mm 4 m/s 621 mmHg 82%
21:00 +14°C° 0.6 mm 4 m/s 622 mmHg 85%
22:00 +13°C° 0.4 mm 3 m/s 622 mmHg 85%
23:00 +13°C° 0.4 mm 3 m/s 621 mmHg 86%
Arată mai mult

Formular de consimțământ

Meteoprog și furnizorii noștri de servicii pot stoca și accesa date personale, precum cookies, identificatori de dispozitiv sau alte tehnologii similare pe dispozitivul dumneavoastră și procesa astfel de date pentru a personaliza conținutul și reclamele, dar și pentru a oferi caracteristici de social media și pentru a analiza traficul.

  • Stocarea și/sau accesarea informațiilor pe dispozitivul dumneavoastră

    Cookies, identificatori de dispozitiv sau alte informații pot fi stocate sau accesate pe dispozitiv în scopurile indicate mai sus.

  • Reclame și conținut personalizat, evaluarea reclamelor și a conținutului, informații despre audiențe și dezvoltarea produselor

    Reclamele și conținutul pot fi personalizate pe baza unui profil. Pot fi adăugate date suplimentare pentru a personaliza mai bine reclamele și conținutul. Performanța reclamelor și conținutului poate fi măsurată. Pot fi obținute informații despre utilizatorii care au văzut reclamele și conținutul. Aceste date pot fi utilizate pentru a dezvolta sau îmbunătăți experiența utilizatorilor, sistemele și software-ul.

Dând clic pe ‘Sunt de acord’, permiteți utilizarea cookie-urilor menționate, a identificatorilor de dispozitiv, balizelor web sau altor tehnologii similare. Setările pot fi modificate din browser-ul dispozitivului dumneavoastră.

În anumite scopuri, interesele legitime pot prima asupra consimțământului. Puteți citi mai multe informații în acest sens în Politica privind Confidențialitatea Datelor și Cookie.